| time (UTC) | temp F | wind direction | speed MPH | gust MPH | rain 1hr in | rain 24hr in | rain mn in | humidity % | barometer mb |
| 20260906184306 | 59 | 181 | 1.0 | 6.0 | 0.04 | 0.06 | 0.04 | 97 | 1003.7 |
| 20260906184159 | 59 | 178 | 2.0 | 6.0 | 0.04 | 0.06 | 0.04 | 97 | 1003.8 |
| 20260906183708 | 59 | 182 | 2.0 | 5.0 | 0.04 | 0.06 | 0.04 | 97 | 1003.7 |
| 20260906182813 | 59 | 121 | 1.0 | 4.0 | 0.04 | 0.06 | 0.04 | 97 | 1003.8 |
| 20260906182310 | 59 | 163 | 2.0 | 6.0 | 0.04 | 0.06 | 0.04 | 97 | 1003.8 |
| 20260906181811 | 59 | 187 | 2.0 | 6.0 | 0.04 | 0.06 | 0.04 | 96 | 1004.0 |
| 20260906181309 | 59 | 116 | 2.0 | 5.0 | 0.02 | 0.05 | 0.02 | 96 | 1004.0 |
| 20260906181000 | 59 | 189 | 2.0 | 4.0 | 0.02 | 0.05 | 0.02 | 96 | 1003.9 |
| 20260906175807 | 59 | 177 | 1.0 | 4.0 | 0.00 | 0.02 | 0.00 | 96 | 1003.9 |
| 20260906175318 | 59 | 155 | 1.0 | 4.0 | 0.00 | 0.02 | 0.00 | 96 | 1003.9 |
| 20260906174806 | 59 | 155 | 1.0 | 4.0 | 0.00 | 0.02 | 0.00 | 96 | 1003.9 |
| 20260906174305 | 59 | 165 | 1.0 | 4.0 | 0.00 | 0.02 | 0.00 | 96 | 1003.9 |
| 20260906173806 | 59 | 167 | 1.0 | 4.0 | 0.00 | 0.02 | 0.00 | 96 | 1003.8 |
| 20260906173304 | 59 | 176 | 1.0 | 4.0 | 0.00 | 0.02 | 0.00 | 96 | 1004.0 |
| 20260906172802 | 59 | 215 | 0.0 | 2.0 | 0.00 | 0.02 | 0.00 | 96 | 1003.9 |
| 20260906172305 | 59 | 181 | 1.0 | 4.0 | 0.00 | 0.02 | 0.00 | 96 | 1004.0 |
| 20260906171802 | 59 | 180 | 1.0 | 4.0 | 0.00 | 0.02 | 0.00 | 96 | 1004.1 |
| 20260906171301 | 58 | 165 | 1.0 | 4.0 | 0.00 | 0.02 | 0.00 | 97 | 1004.2 |
| 20260906170801 | 58 | 165 | 1.0 | 3.0 | 0.00 | 0.02 | 0.00 | 97 | 1004.2 |
| 20260906170301 | 58 | 174 | 0.0 | 3.0 | 0.00 | 0.02 | 0.00 | 97 | 1004.2 |
| 20260906165801 | 58 | 154 | 0.0 | 2.0 | 0.00 | 0.02 | 0.00 | 97 | 1004.2 |
| 20260906165259 | 58 | 154 | 1.0 | 4.0 | 0.00 | 0.02 | 0.00 | 97 | 1004.3 |
| 20260906165159 | 58 | 154 | 1.0 | 4.0 | 0.00 | 0.02 | 0.00 | 98 | 1004.3 |
| 20260906164255 | 58 | 133 | 1.0 | 4.0 | 0.00 | 0.02 | 0.00 | 98 | 1004.4 |
| 20260906163755 | 58 | 163 | 1.0 | 4.0 | 0.00 | 0.02 | 0.00 | 98 | 1004.4 |
| 20260906163251 | 58 | 165 | 0.0 | 4.0 | 0.00 | 0.02 | 0.00 | 98 | 1004.5 |
| 20260906162743 | 58 | 155 | 0.0 | 1.0 | 0.00 | 0.02 | 0.00 | 98 | 1004.5 |
| 20260906162638 | 58 | 129 | 0.0 | 0.0 | 0.00 | 0.02 | 0.00 | 97 | 1004.6 |
| 20260906161731 | 58 | 129 | 0.0 | 1.0 | 0.00 | 0.02 | 0.00 | 97 | 1004.7 |
| 20260906161226 | 58 | 129 | 0.0 | 3.0 | 0.00 | 0.02 | 0.00 | 98 | 1004.7 |
| 20260906160723 | 58 | 129 | 0.0 | 3.0 | 0.00 | 0.02 | 0.00 | 97 | 1004.5 |
| 20260906160213 | 58 | 148 | 0.0 | 2.0 | 0.00 | 0.02 | 0.00 | 97 | 1004.8 |
| 20260906155708 | 58 | 149 | 1.0 | 4.0 | 0.00 | 0.02 | 0.00 | 97 | 1004.7 |
| 20260906155202 | 58 | 182 | 1.0 | 4.0 | 0.00 | 0.02 | 0.00 | 97 | 1004.8 |
| 20260906154655 | 58 | 154 | 0.0 | 1.0 | 0.00 | 0.02 | 0.00 | 97 | 1004.8 |
| 20260906154151 | 58 | 143 | 0.0 | 2.0 | 0.00 | 0.02 | 0.00 | 97 | 1004.8 |
| 20260906153644 | 58 | 143 | 0.0 | 2.0 | 0.00 | 0.02 | 0.00 | 96 | 1004.9 |
| 20260906153137 | 58 | 140 | 0.0 | 1.0 | 0.00 | 0.02 | 0.00 | 96 | 1005.0 |
| 20260906153032 | 58 | 141 | 1.0 | 4.0 | 0.00 | 0.02 | 0.00 | 96 | 1005.1 |
| 20260906152126 | 58 | 140 | 1.0 | 4.0 | 0.00 | 0.02 | 0.00 | 97 | 1005.2 |
| 20260906151621 | 58 | 191 | 0.0 | 1.0 | 0.00 | 0.02 | 0.00 | 96 | 1005.3 |
| 20260906151504 | 58 | 191 | 0.0 | 0.0 | 0.00 | 0.02 | 0.00 | 96 | 1005.5 |
| 20260906150607 | 58 | 191 | 0.0 | 0.0 | 0.00 | 0.02 | 0.00 | 95 | 1005.6 |
| 20260906145553 | 58 | 191 | 0.0 | 2.0 | 0.00 | 0.02 | 0.00 | 95 | 1005.7 |
| 20260906145047 | 58 | 184 | 1.0 | 4.0 | 0.00 | 0.02 | 0.00 | 95 | 1005.7 |
| 20260906144542 | 58 | 152 | 1.0 | 4.0 | 0.00 | 0.02 | 0.00 | 95 | 1005.8 |
| 20260906144035 | 58 | 130 | 1.0 | 4.0 | 0.00 | 0.02 | 0.00 | 96 | 1005.8 |
| 20260906143931 | 58 | 182 | 0.0 | 1.0 | 0.00 | 0.02 | 0.00 | 95 | 1006.0 |
| 20260906143412 | 58 | 182 | 0.0 | 2.0 | 0.00 | 0.02 | 0.00 | 95 | 1006.0 |
| 20260906142521 | 58 | 182 | 1.0 | 2.0 | 0.00 | 0.02 | 0.00 | 95 | 1006.2 |
| 20260906142013 | 58 | 172 | 1.0 | 5.0 | 0.00 | 0.02 | 0.00 | 95 | 1006.2 |
| 20260906141505 | 58 | 146 | 1.0 | 7.0 | 0.00 | 0.02 | 0.00 | 95 | 1006.3 |
| 20260906141001 | 58 | 141 | 2.0 | 7.0 | 0.00 | 0.02 | 0.00 | 95 | 1006.3 |
| 20260906140453 | 58 | 196 | 1.0 | 5.0 | 0.00 | 0.02 | 0.00 | 96 | 1006.5 |
| 20260906135947 | 58 | 187 | 1.0 | 3.0 | 0.00 | 0.02 | 0.00 | 96 | 1006.6 |
| 20260906135441 | 58 | 180 | 1.0 | 3.0 | 0.00 | 0.02 | 0.00 | 96 | 1006.7 |
| 20260906134942 | 58 | 189 | 2.0 | 7.0 | 0.00 | 0.02 | 0.00 | 97 | 1006.9 |
| 20260906134623 | 57 | 134 | 2.0 | 7.0 | 0.00 | 0.02 | 0.00 | 97 | 1006.7 |
| 20260906133445 | 57 | 158 | 1.0 | 3.0 | 0.00 | 0.02 | 0.00 | 99 | 1007.1 |
| 20260906132943 | 56 | 165 | 1.0 | 2.0 | 0.00 | 0.02 | 0.00 | 99 | 1007.2 |
| 20260906132436 | 56 | 184 | 0.0 | 2.0 | 0.00 | 0.02 | 0.00 | 99 | 1007.3 |
| 20260906131932 | 56 | 155 | 0.0 | 0.0 | 0.00 | 0.02 | 0.00 | 98 | 1007.5 |
| 20260906131433 | 56 | 155 | 0.0 | 0.0 | 0.00 | 0.02 | 0.00 | 98 | 1007.6 |
| 20260906130938 | 56 | 155 | 0.0 | 0.0 | 0.00 | 0.02 | 0.00 | 98 | 1007.6 |
| 20260906130427 | 56 | 155 | 0.0 | 0.0 | 0.00 | 0.02 | 0.00 | 98 | 1007.6 |
| 20260906125924 | 56 | 155 | 0.0 | 0.0 | 0.00 | 0.02 | 0.00 | 98 | 1007.6 |
| 20260906125423 | 56 | 155 | 0.0 | 0.0 | 0.00 | 0.02 | 0.00 | 98 | 1007.8 |
| 20260906124924 | 56 | 155 | 0.0 | 0.0 | 0.00 | 0.02 | 0.00 | 98 | 1007.8 |
| 20260906124421 | 56 | 155 | 0.0 | 0.0 | 0.00 | 0.02 | 0.00 | 97 | 1007.9 |
| 20260906123922 | 56 | 155 | 0.0 | 0.0 | 0.00 | 0.02 | 0.00 | 97 | 1007.9 |
| 20260906123420 | 56 | 155 | 0.0 | 1.0 | 0.01 | 0.02 | 0.00 | 97 | 1007.9 |
| 20260906122921 | 56 | 155 | 0.0 | 1.0 | 0.01 | 0.02 | 0.00 | 97 | 1008.0 |
| 20260906122420 | 56 | 155 | 0.0 | 1.0 | 0.01 | 0.02 | 0.00 | 97 | 1007.9 |
| 20260906121922 | 56 | 155 | 0.0 | 1.0 | 0.01 | 0.02 | 0.00 | 97 | 1008.0 |
| 20260906121416 | 56 | 155 | 0.0 | 1.0 | 0.01 | 0.02 | 0.00 | 97 | 1008.0 |
| 20260906120915 | 56 | 155 | 0.0 | 2.0 | 0.01 | 0.02 | 0.00 | 97 | 1008.0 |
| 20260906120423 | 56 | 155 | 0.0 | 2.0 | 0.01 | 0.02 | 0.00 | 97 | 1008.0 |
| 20260906115919 | 56 | 159 | 0.0 | 1.0 | 0.02 | 0.02 | 0.02 | 97 | 1008.1 |
| 20260906115415 | 56 | 159 | 0.0 | 1.0 | 0.02 | 0.02 | 0.02 | 97 | 1008.0 |
| 20260906114914 | 56 | 160 | 0.0 | 1.0 | 0.02 | 0.02 | 0.02 | 97 | 1008.2 |
| 20260906114416 | 56 | 159 | 0.0 | 2.0 | 0.02 | 0.02 | 0.02 | 97 | 1008.2 |
| 20260906113914 | 56 | 137 | 0.0 | 2.0 | 0.02 | 0.02 | 0.02 | 97 | 1008.5 |
| 20260906113412 | 56 | 136 | 0.0 | 1.0 | 0.02 | 0.02 | 0.02 | 96 | 1008.6 |
| 20260906112911 | 56 | 136 | 0.0 | 1.0 | 0.02 | 0.02 | 0.02 | 96 | 1008.6 |
| 20260906112409 | 56 | 136 | 0.0 | 2.0 | 0.02 | 0.02 | 0.02 | 96 | 1008.5 |
| 20260906111907 | 56 | 138 | 1.0 | 3.0 | 0.02 | 0.02 | 0.02 | 96 | 1008.7 |
| 20260906111405 | 56 | 133 | 0.0 | 3.0 | 0.02 | 0.02 | 0.02 | 96 | 1008.8 |
| 20260906110905 | 56 | 153 | 0.0 | 2.0 | 0.02 | 0.02 | 0.02 | 96 | 1008.9 |
| 20260906110405 | 56 | 183 | 0.0 | 1.0 | 0.02 | 0.02 | 0.02 | 95 | 1009.0 |
| 20260906105909 | 56 | 181 | 0.0 | 1.0 | 0.01 | 0.01 | 0.01 | 95 | 1009.1 |
| 20260906105404 | 56 | 181 | 0.0 | 3.0 | 0.01 | 0.01 | 0.01 | 95 | 1009.4 |
| 20260906104901 | 56 | 181 | 1.0 | 3.0 | 0.00 | 0.00 | 0.01 | 95 | 1009.4 |
| 20260906104801 | 56 | 172 | 1.0 | 2.0 | 0.00 | 0.00 | 0.00 | 95 | 1009.4 |
| 20260906103856 | 56 | 84 | 1.0 | 2.0 | 0.00 | 0.00 | 0.00 | 95 | 1009.4 |
| 20260906103356 | 56 | 164 | 1.0 | 2.0 | 0.00 | 0.00 | 0.00 | 95 | 1009.5 |
| 20260906102845 | 56 | 155 | 1.0 | 5.0 | 0.00 | 0.00 | 0.00 | 95 | 1009.5 |
| 20260906102339 | 56 | 141 | 1.0 | 5.0 | 0.00 | 0.00 | 0.00 | 95 | 1009.7 |
| 20260906101832 | 56 | 128 | 1.0 | 3.0 | 0.00 | 0.00 | 0.00 | 95 | 1009.7 |
| 20260906101333 | 56 | 66 | 1.0 | 5.0 | 0.00 | 0.00 | 0.00 | 94 | 1009.8 |
| 20260906100834 | 56 | 157 | 1.0 | 5.0 | 0.00 | 0.00 | 0.00 | 94 | 1009.8 |
| 20260906100332 | 56 | 152 | 1.0 | 4.0 | 0.00 | 0.00 | 0.00 | 94 | 1009.9 |
| 20260906095829 | 56 | 163 | 1.0 | 5.0 | 0.00 | 0.00 | 0.00 | 94 | 1010.0 |
| 20260906095329 | 56 | 158 | 2.0 | 5.0 | 0.00 | 0.00 | 0.00 | 93 | 1010.0 |
| 20260906094830 | 56 | 145 | 2.0 | 8.0 | 0.00 | 0.00 | 0.00 | 94 | 1010.1 |
| 20260906094329 | 56 | 140 | 1.0 | 8.0 | 0.00 | 0.00 | 0.00 | 94 | 1010.1 |
| 20260906093826 | 56 | 163 | 0.0 | 2.0 | 0.00 | 0.00 | 0.00 | 95 | 1010.2 |
| 20260906093324 | 56 | 191 | 0.0 | 1.0 | 0.00 | 0.00 | 0.00 | 94 | 1010.2 |
| 20260906092821 | 56 | 175 | 0.0 | 1.0 | 0.00 | 0.00 | 0.00 | 94 | 1010.1 |
| 20260906092319 | 56 | 175 | 0.0 | 1.0 | 0.00 | 0.00 | 0.00 | 93 | 1010.1 |
| 20260906092215 | 56 | 175 | 0.0 | 0.0 | 0.00 | 0.00 | 0.00 | 92 | 1010.2 |
| 20260906091323 | 56 | 175 | 0.0 | 0.0 | 0.00 | 0.00 | 0.00 | 92 | 1010.2 |
| 20260906090815 | 56 | 175 | 0.0 | 1.0 | 0.00 | 0.00 | 0.00 | 91 | 1010.2 |
| 20260906090313 | 56 | 175 | 0.0 | 2.0 | 0.00 | 0.00 | 0.00 | 91 | 1010.2 |
| 20260906090230 | 56 | 175 | 0.0 | 2.0 | 0.00 | 0.00 | 0.00 | 90 | 1010.1 |
| 20260906085313 | 56 | 180 | 0.0 | 2.0 | 0.00 | 0.00 | 0.00 | 90 | 1010.3 |
| 20260906084813 | 56 | 354 | 1.0 | 6.0 | 0.00 | 0.00 | 0.00 | 89 | 1010.2 |
| 20260906084306 | 56 | 39 | 2.0 | 6.0 | 0.00 | 0.00 | 0.00 | 89 | 1010.3 |
| 20260906084205 | 56 | 131 | 2.0 | 6.0 | 0.00 | 0.00 | 0.00 | 88 | 1010.2 |
| 20260906083711 | 56 | 189 | 1.0 | 6.0 | 0.00 | 0.00 | 0.00 | 88 | 1010.3 |
| 20260906082801 | 56 | 21 | 0.0 | 3.0 | 0.00 | 0.00 | 0.00 | 89 | 1010.3 |
| 20260906082300 | 56 | 142 | 0.0 | 2.0 | 0.00 | 0.00 | 0.00 | 89 | 1010.2 |
| 20260906081757 | 56 | 140 | 0.0 | 2.0 | 0.00 | 0.00 | 0.00 | 89 | 1010.3 |
| 20260906081702 | 56 | 151 | 0.0 | 2.0 | 0.00 | 0.00 | 0.00 | 90 | 1010.3 |
| 20260906080755 | 56 | 59 | 0.0 | 1.0 | 0.00 | 0.00 | 0.00 | 90 | 1010.5 |
| 20260906080254 | 56 | 142 | 0.0 | 1.0 | 0.00 | 0.00 | 0.00 | 90 | 1010.6 |
| 20260906075756 | 56 | 142 | 0.0 | 0.0 | 0.00 | 0.00 | 0.00 | 90 | 1010.5 |
| 20260906075255 | 56 | 145 | 0.0 | 0.0 | 0.00 | 0.00 | 0.00 | 90 | 1010.6 |
| 20260906075148 | 56 | 145 | 0.0 | 0.0 | 0.00 | 0.00 | 0.00 | 89 | 1010.8 |
| 20260906074256 | 56 | 145 | 0.0 | 0.0 | 0.00 | 0.00 | 0.00 | 89 | 1010.8 |
| 20260906073755 | 56 | 145 | 0.0 | 2.0 | 0.00 | 0.00 | 0.00 | 88 | 1010.8 |
| 20260906073255 | 56 | 145 | 0.0 | 4.0 | 0.00 | 0.00 | 0.00 | 88 | 1010.9 |
| 20260906072755 | 56 | 144 | 1.0 | 5.0 | 0.00 | 0.00 | 0.00 | 88 | 1011.1 |
| 20260906072256 | 56 | 158 | 1.0 | 5.0 | 0.00 | 0.00 | 0.00 | 89 | 1011.1 |
| 20260906071756 | 55 | 148 | 0.0 | 2.0 | 0.00 | 0.00 | 0.00 | 90 | 1011.1 |
| 20260906071255 | 55 | 125 | 0.0 | 1.0 | 0.00 | 0.00 | 0.00 | 91 | 1011.1 |
| 20260906070756 | 55 | 355 | 0.0 | 1.0 | 0.00 | 0.00 | 0.00 | 92 | 1011.1 |
| 20260906070730 | 55 | 125 | 0.0 | 0.0 | 0.00 | 0.00 | 0.00 | 91 | 1011.1 |
| 20260906065755 | 55 | 125 | 0.0 | 0.0 | 0.00 | 0.00 | 0.00 | 91 | 1011.1 |
| 20260906065255 | 55 | 125 | 0.0 | 1.0 | 0.00 | 0.00 | 0.00 | 90 | 1011.1 |
| 20260906064754 | 55 | 123 | 0.0 | 1.0 | 0.00 | 0.00 | 0.00 | 89 | 1011.2 |
| 20260906064259 | 56 | 123 | 0.0 | 3.0 | 0.00 | 0.00 | 0.00 | 89 | 1011.2 |
| 20260906063758 | 56 | 123 | 0.0 | 3.0 | 0.00 | 0.00 | 0.00 | 89 | 1011.1 |
| 20260906063251 | 56 | 177 | 0.0 | 2.0 | 0.00 | 0.00 | 0.00 | 88 | 1011.1 |
| 20260906062752 | 56 | 113 | 0.0 | 0.0 | 0.00 | 0.00 | 0.00 | 87 | 1011.1 |
| 20260906062251 | 57 | 113 | 0.0 | 0.0 | 0.00 | 0.00 | 0.00 | 87 | 1011.2 |
| 20260906061751 | 57 | 113 | 0.0 | 1.0 | 0.00 | 0.00 | 0.00 | 86 | 1011.2 |
| 20260906061251 | 57 | 113 | 0.0 | 1.0 | 0.00 | 0.00 | 0.00 | 86 | 1011.2 |
| 20260906061140 | 57 | 108 | 0.0 | 1.0 | 0.00 | 0.00 | 0.00 | 85 | 1011.3 |
| 20260906060244 | 58 | 84 | 0.0 | 2.0 | 0.00 | 0.00 | 0.00 | 85 | 1011.2 |
| 20260906055744 | 58 | 70 | 0.0 | 2.0 | 0.00 | 0.00 | 0.00 | 84 | 1011.2 |
| 20260906055253 | 58 | 118 | 0.0 | 1.0 | 0.00 | 0.00 | 0.00 | 84 | 1011.3 |
| 20260906054749 | 58 | 123 | 0.0 | 1.0 | 0.00 | 0.00 | 0.00 | 83 | 1011.3 |
| 20260906054246 | 59 | 122 | 0.0 | 2.0 | 0.00 | 0.00 | 0.00 | 82 | 1011.4 |
| 20260906053747 | 59 | 158 | 0.0 | 2.0 | 0.00 | 0.00 | 0.00 | 81 | 1011.3 |
| 20260906053242 | 59 | 158 | 0.0 | 1.0 | 0.00 | 0.00 | 0.00 | 81 | 1011.4 |
| 20260906052733 | 60 | 158 | 0.0 | 2.0 | 0.00 | 0.00 | 0.00 | 80 | 1011.3 |
| 20260906052227 | 60 | 183 | 0.0 | 3.0 | 0.00 | 0.00 | 0.00 | 80 | 1011.3 |
| 20260906051722 | 60 | 177 | 0.0 | 3.0 | 0.00 | 0.00 | 0.00 | 79 | 1011.4 |
| 20260906051215 | 60 | 189 | 0.0 | 1.0 | 0.00 | 0.00 | 0.00 | 80 | 1011.4 |
| 20260906050920 | 60 | 189 | 0.0 | 2.0 | 0.00 | 0.00 | 0.00 | 80 | 1011.4 |
| 20260906050818 | 60 | 189 | 0.0 | 2.0 | 0.00 | 0.00 | 0.00 | 80 | 1011.4 |
| 20260906045152 | 60 | 152 | 0.0 | 0.0 | 0.00 | 0.00 | 0.00 | 79 | 1011.3 |
| 20260906044645 | 60 | 152 | 0.0 | 3.0 | 0.00 | 0.00 | 0.00 | 78 | 1011.4 |
| 20260906044142 | 60 | 143 | 0.0 | 3.0 | 0.00 | 0.00 | 0.00 | 77 | 1011.4 |
| 20260906043633 | 60 | 155 | 0.0 | 2.0 | 0.00 | 0.00 | 0.00 | 76 | 1011.4 |
| 20260906043127 | 60 | 156 | 0.0 | 2.0 | 0.00 | 0.00 | 0.00 | 75 | 1011.5 |
| 20260906043011 | 61 | 287 | 0.0 | 1.0 | 0.00 | 0.00 | 0.00 | 75 | 1011.5 |
| 20260906042520 | 61 | 287 | 0.0 | 3.0 | 0.00 | 0.00 | 0.00 | 75 | 1011.5 |
| 20260906041612 | 61 | 291 | 0.0 | 3.0 | 0.00 | 0.00 | 0.00 | 73 | 1011.6 |
| 20260906041104 | 61 | 293 | 0.0 | 3.0 | 0.00 | 0.00 | 0.00 | 74 | 1011.7 |
| 20260906040557 | 61 | 280 | 0.0 | 3.0 | 0.00 | 0.00 | 0.00 | 73 | 1011.7 |
| 20260906040051 | 61 | 286 | 1.0 | 4.0 | 0.00 | 0.00 | 0.00 | 72 | 1011.8 |
| 20260906035545 | 62 | 258 | 1.0 | 4.0 | 0.00 | 0.00 | 0.00 | 71 | 1011.9 |
| 20260906035041 | 62 | 276 | 0.0 | 4.0 | 0.00 | 0.00 | 0.00 | 72 | 1012.0 |
| 20260906034533 | 63 | 307 | 0.0 | 4.0 | 0.00 | 0.00 | 0.00 | 71 | 1012.1 |
| 20260906034028 | 62 | 284 | 0.0 | 2.0 | 0.00 | 0.00 | 0.00 | 73 | 1012.1 |
| 20260906033521 | 62 | 191 | 1.0 | 4.0 | 0.00 | 0.00 | 0.00 | 73 | 1012.1 |
| 20260906033016 | 61 | 162 | 0.0 | 4.0 | 0.00 | 0.00 | 0.00 | 74 | 1012.2 |
| 20260906032511 | 61 | 104 | 0.0 | 3.0 | 0.00 | 0.00 | 0.00 | 74 | 1012.1 |
| 20260906032428 | 61 | 287 | 1.0 | 5.0 | 0.00 | 0.00 | 0.00 | 74 | 1012.3 |
| 20260906031457 | 60 | 342 | 1.0 | 5.0 | 0.00 | 0.00 | 0.00 | 76 | 1012.4 |
| 20260906030951 | 60 | 319 | 1.0 | 5.0 | 0.00 | 0.00 | 0.00 | 75 | 1012.6 |
| 20260906030445 | 60 | 310 | 2.0 | 7.0 | 0.00 | 0.00 | 0.00 | 77 | 1012.5 |
| 20260906025946 | 60 | 293 | 1.0 | 7.0 | 0.00 | 0.00 | 0.00 | 77 | 1012.6 |
| 20260906025851 | 61 | 273 | 0.0 | 4.0 | 0.00 | 0.00 | 0.00 | 73 | 1012.6 |
| 20260906024946 | 61 | 289 | 1.0 | 5.0 | 0.00 | 0.00 | 0.00 | 73 | 1012.5 |
| 20260906024445 | 61 | 264 | 1.0 | 5.0 | 0.00 | 0.00 | 0.00 | 72 | 1012.5 |
| 20260906023944 | 61 | 325 | 1.0 | 5.0 | 0.00 | 0.00 | 0.00 | 74 | 1012.6 |
| 20260906023443 | 61 | 290 | 0.0 | 5.0 | 0.00 | 0.00 | 0.00 | 74 | 1012.7 |
| 20260906023130 | 61 | 277 | 0.0 | 3.0 | 0.00 | 0.00 | 0.00 | 74 | 1012.7 |
| 20260906021942 | 61 | 313 | 0.0 | 4.0 | 0.00 | 0.00 | 0.00 | 73 | 1012.9 |
| 20260906021448 | 61 | 238 | 0.0 | 4.0 | 0.00 | 0.00 | 0.00 | 74 | 1012.9 |
| 20260906020945 | 61 | 293 | 1.0 | 4.0 | 0.00 | 0.00 | 0.00 | 77 | 1012.9 |
| 20260906020442 | 61 | 353 | 1.0 | 5.0 | 0.00 | 0.00 | 0.00 | 74 | 1012.9 |
| 20260906015936 | 61 | 290 | 1.0 | 11.0 | 0.00 | 0.00 | 0.00 | 74 | 1012.8 |
| 20260906015434 | 61 | 244 | 1.0 | 11.0 | 0.00 | 0.00 | 0.00 | 74 | 1012.9 |
| 20260906014934 | 61 | 27 | 1.0 | 4.0 | 0.00 | 0.00 | 0.00 | 73 | 1012.9 |
| 20260906014434 | 61 | 278 | 2.0 | 5.0 | 0.00 | 0.00 | 0.00 | 72 | 1012.9 |
| 20260906013935 | 62 | 300 | 1.0 | 5.0 | 0.00 | 0.00 | 0.00 | 72 | 1012.9 |
| 20260906013435 | 62 | 274 | 1.0 | 5.0 | 0.00 | 0.00 | 0.00 | 72 | 1012.9 |
| 20260906012936 | 62 | 269 | 1.0 | 5.0 | 0.00 | 0.00 | 0.00 | 71 | 1013.1 |
| 20260906012435 | 63 | 308 | 1.0 | 5.0 | 0.00 | 0.00 | 0.00 | 71 | 1012.9 |
| 20260906011934 | 63 | 265 | 2.0 | 10.0 | 0.00 | 0.00 | 0.00 | 71 | 1013.1 |
| 20260906011850 | 63 | 220 | 2.0 | 10.0 | 0.00 | 0.00 | 0.00 | 69 | 1013.1 |
| 20260906010934 | 64 | 255 | 1.0 | 7.0 | 0.00 | 0.00 | 0.00 | 67 | 1013.1 |
| 20260906010441 | 64 | 154 | 1.0 | 4.0 | 0.00 | 0.00 | 0.00 | 67 | 1013.3 |
| 20260906005933 | 64 | 287 | 2.0 | 6.0 | 0.00 | 0.00 | 0.00 | 68 | 1013.4 |
| 20260906005834 | 64 | 13 | 2.0 | 7.0 | 0.00 | 0.00 | 0.00 | 65 | 1013.5 |
| 20260906004935 | 65 | 154 | 2.0 | 8.0 | 0.00 | 0.00 | 0.00 | 64 | 1013.7 |
| 20260906004615 | 65 | 310 | 3.0 | 8.0 | 0.00 | 0.00 | 0.00 | 64 | 1013.7 |
| 20260906003435 | 64 | 254 | 2.0 | 10.0 | 0.00 | 0.00 | 0.00 | 63 | 1013.7 |
| 20260906002934 | 64 | 277 | 2.0 | 10.0 | 0.00 | 0.00 | 0.00 | 64 | 1013.9 |
| 20260906002433 | 64 | 236 | 2.0 | 10.0 | 0.00 | 0.00 | 0.00 | 64 | 1014.0 |
| 20260906001933 | 64 | 220 | 2.0 | 8.0 | 0.00 | 0.00 | 0.00 | 63 | 1014.1 |
| 20260906001626 | 64 | 236 | 3.0 | 10.0 | 0.00 | 0.00 | 0.00 | 64 | 1014.1 |
| 20260906000433 | 65 | 241 | 2.0 | 10.0 | 0.00 | 0.00 | 0.00 | 62 | 1014.1 |
| 20260905235927 | 66 | 284 | 1.0 | 7.0 | 0.00 | 0.00 | 0.00 | 62 | 1014.2 |
| 20260905235432 | 66 | 265 | 1.0 | 4.0 | 0.00 | 0.00 | 0.00 | 64 | 1014.4 |
| 20260905234929 | 65 | 319 | 1.0 | 5.0 | 0.00 | 0.00 | 0.00 | 63 | 1014.5 |
| 20260905234425 | 65 | 210 | 1.0 | 5.0 | 0.00 | 0.00 | 0.00 | 61 | 1014.6 |
| 20260905233926 | 65 | 272 | 1.0 | 8.0 | 0.00 | 0.00 | 0.00 | 63 | 1014.9 |
| 20260905233425 | 65 | 38 | 2.0 | 8.0 | 0.00 | 0.00 | 0.00 | 62 | 1014.9 |
| 20260905232922 | 65 | 339 | 2.0 | 8.0 | 0.00 | 0.00 | 0.00 | 63 | 1015.1 |
| 20260905232423 | 65 | 253 | 2.0 | 7.0 | 0.00 | 0.00 | 0.00 | 63 | 1015.1 |
| 20260905231923 | 65 | 304 | 2.0 | 7.0 | 0.00 | 0.00 | 0.00 | 64 | 1015.2 |
| 20260905231426 | 65 | 341 | 2.0 | 7.0 | 0.00 | 0.00 | 0.00 | 62 | 1015.2 |
| 20260905230923 | 64 | 305 | 2.0 | 7.0 | 0.00 | 0.00 | 0.00 | 66 | 1015.3 |
| 20260905230439 | 64 | 322 | 2.0 | 7.0 | 0.00 | 0.00 | 0.00 | 66 | 1015.6 |
| 20260905225924 | 64 | 302 | 1.0 | 7.0 | 0.00 | 0.00 | 0.00 | 67 | 1015.8 |
| 20260905225421 | 63 | 272 | 1.0 | 3.0 | 0.00 | 0.00 | 0.00 | 70 | 1015.7 |
| 20260905225059 | 61 | 189 | 0.0 | 2.0 | 0.00 | 0.00 | 0.00 | 74 | 1015.8 |
| 20260905225011 | 62 | 220 | 0.0 | 3.0 | 0.00 | 0.00 | 0.00 | 75 | 1015.7 |
| 20260905223406 | 60 | 150 | 1.0 | 4.0 | 0.00 | 0.00 | 0.00 | 76 | 1016.1 |
| 20260905222901 | 60 | 204 | 0.0 | 2.0 | 0.00 | 0.00 | 0.00 | 77 | 1016.2 |
| 20260905222555 | 59 | 209 | 1.0 | 3.0 | 0.00 | 0.00 | 0.00 | 79 | 1016.3 |
| 20260905222444 | 59 | 153 | 0.0 | 3.0 | 0.00 | 0.00 | 0.00 | 77 | 1016.2 |
| 20260905220837 | 59 | 154 | 1.0 | 2.0 | 0.00 | 0.00 | 0.00 | 79 | 1016.4 |
| 20260905220331 | 58 | 140 | 0.0 | 2.0 | 0.00 | 0.00 | 0.00 | 79 | 1016.4 |
| 20260905215824 | 58 | 177 | 0.0 | 2.0 | 0.00 | 0.00 | 0.00 | 79 | 1016.3 |
| 20260905215318 | 58 | 173 | 1.0 | 4.0 | 0.00 | 0.00 | 0.00 | 81 | 1016.4 |
| 20260905214812 | 58 | 192 | 1.0 | 4.0 | 0.00 | 0.00 | 0.00 | 82 | 1016.4 |
| 20260905214306 | 58 | 198 | 1.0 | 5.0 | 0.00 | 0.00 | 0.00 | 82 | 1016.8 |
| 20260905213802 | 57 | 168 | 1.0 | 5.0 | 0.00 | 0.00 | 0.00 | 82 | 1016.9 |
| 20260905213254 | 57 | 217 | 1.0 | 4.0 | 0.00 | 0.00 | 0.00 | 82 | 1016.9 |
| 20260905212748 | 57 | 162 | 2.0 | 5.0 | 0.00 | 0.00 | 0.00 | 83 | 1016.9 |
| 20260905212243 | 57 | 176 | 2.0 | 5.0 | 0.00 | 0.00 | 0.00 | 82 | 1017.0 |
| 20260905211736 | 57 | 187 | 1.0 | 3.0 | 0.00 | 0.00 | 0.00 | 83 | 1016.8 |
| 20260905211654 | 56 | 187 | 1.0 | 3.0 | 0.00 | 0.00 | 0.00 | 84 | 1017.0 |
| 20260905211120 | 56 | 203 | 1.0 | 3.0 | 0.00 | 0.00 | 0.00 | 85 | 1017.2 |
| 20260905210224 | 55 | 216 | 1.0 | 4.0 | 0.00 | 0.00 | 0.00 | 85 | 1017.1 |
| 20260905205721 | 54 | 113 | 1.0 | 4.0 | 0.00 | 0.00 | 0.00 | 88 | 1017.1 |
| 20260905205357 | 53 | 172 | 2.0 | 6.0 | 0.00 | 0.00 | 0.00 | 89 | 1017.1 |
| 20260905204221 | 52 | 171 | 3.0 | 7.0 | 0.00 | 0.00 | 0.00 | 90 | 1017.2 |
| 20260905203721 | 51 | 161 | 2.0 | 7.0 | 0.00 | 0.00 | 0.00 | 91 | 1017.3 |
| 20260905203225 | 51 | 145 | 2.0 | 5.0 | 0.00 | 0.00 | 0.00 | 91 | 1017.3 |
| 20260905202719 | 50 | 113 | 2.0 | 6.0 | 0.00 | 0.00 | 0.00 | 92 | 1017.3 |
| 20260905202219 | 50 | 151 | 1.0 | 6.0 | 0.00 | 0.00 | 0.00 | 93 | 1017.2 |
| 20260905201719 | 50 | 129 | 0.0 | 2.0 | 0.00 | 0.00 | 0.00 | 95 | 1017.2 |
| 20260905201624 | 49 | 258 | 0.0 | 2.0 | 0.00 | 0.00 | 0.00 | 95 | 1017.2 |
| 20260905200713 | 49 | 196 | 0.0 | 3.0 | 0.00 | 0.00 | 0.00 | 96 | 1017.1 |
| 20260905200414 | 48 | 222 | 0.0 | 1.0 | 0.00 | 0.00 | 0.00 | 100 | 1017.0 |
| 20260905200311 | 48 | 196 | 0.0 | 3.0 | 0.00 | 0.00 | 0.00 | 99 | 1017.1 |
| 20260905194710 | 46 | 220 | 0.0 | 0.0 | 0.00 | 0.00 | 0.00 | 100 | 1017.1 |
| 20260905194210 | 45 | 220 | 0.0 | 0.0 | 0.00 | 0.00 | 0.00 | 100 | 1017.2 |
| 20260905193709 | 45 | 220 | 0.0 | 2.0 | 0.00 | 0.00 | 0.00 | 100 | 1017.0 |
| 20260905193206 | 44 | 220 | 0.0 | 2.0 | 0.00 | 0.00 | 0.00 | 99 | 1017.0 |
| 20260905193102 | 44 | 220 | 0.0 | 2.0 | 0.00 | 0.00 | 0.00 | 100 | 1016.9 |
| 20260905192203 | 43 | 218 | 0.0 | 1.0 | 0.00 | 0.00 | 0.00 | 100 | 1016.8 |
| 20260905191709 | 43 | 218 | 0.0 | 1.0 | 0.00 | 0.00 | 0.00 | 100 | 1016.9 |
| 20260905191208 | 42 | 279 | 0.0 | 0.0 | 0.00 | 0.00 | 0.00 | 100 | 1016.8 |
| 20260905190707 | 41 | 279 | 0.0 | 0.0 | 0.00 | 0.00 | 0.00 | 100 | 1016.8 |
| 20260905190216 | 40 | 279 | 0.0 | 0.0 | 0.00 | 0.00 | 0.00 | 99 | 1016.9 |
| 20260905185716 | 39 | 279 | 0.0 | 0.0 | 0.00 | 0.00 | 0.00 | 99 | 1016.8 |
| 20260905185605 | 39 | 279 | 0.0 | 0.0 | 0.00 | 0.00 | 0.00 | 99 | 1016.7 |
| 20260905184702 | 38 | 279 | 0.0 | 0.0 | 0.00 | 0.00 | 0.00 | 98 | 1016.5 |